• en Belgique
  • Liste des pays
  • À 7 jours
  • Température de l'eau
  • Carte satellitaire
  • Carte météo
  • Widgets météo
  • user-avatar
    Se connecter

    Météo par heure à Tiranё

    Ce jour, 12 Décembre, Mardi

    Heure Température Précipitation Vent Pression Humidité
    00:00 +9°C° 0 mm 8 m/s 756 mmHg 80%
    01:00 +9°C° 0 mm 8 m/s 756 mmHg 80%
    02:00 +9°C° 0 mm 7 m/s 756 mmHg 80%
    03:00 +9°C° 0 mm 7 m/s 756 mmHg 80%
    04:00 +9°C° 0 mm 7 m/s 756 mmHg 81%
    05:00 +9°C° 0 mm 7 m/s 756 mmHg 82%
    06:00 +9°C° 0 mm 7 m/s 757 mmHg 82%
    07:00 +9°C° 0 mm 6 m/s 757 mmHg 83%
    08:00 +11°C° 0 mm 6 m/s 757 mmHg 80%
    09:00 +13°C° 0 mm 6 m/s 757 mmHg 78%
    10:00 +14°C° 0 mm 6 m/s 757 mmHg 75%
    11:00 +15°C° 0 mm 7 m/s 757 mmHg 74%
    12:00 +15°C° 0 mm 7 m/s 757 mmHg 74%
    13:00 +16°C° 0 mm 7 m/s 757 mmHg 73%
    14:00 +15°C° 0 mm 7 m/s 757 mmHg 77%
    15:00 +14°C° 0 mm 6 m/s 757 mmHg 81%
    16:00 +13°C° 0 mm 6 m/s 757 mmHg 85%
    17:00 +13°C° 0 mm 6 m/s 757 mmHg 85%
    18:00 +11°C° 0 mm 6 m/s 758 mmHg 86%
    19:00 +11°C° 0 mm 6 m/s 758 mmHg 87%
    20:00 +11°C° 0 mm 6 m/s 758 mmHg 86%
    21:00 +11°C° 0 mm 6 m/s 758 mmHg 85%
    22:00 +10°C° 0 mm 5 m/s 759 mmHg 85%
    23:00 +10°C° 0 mm 5 m/s 759 mmHg 84%

    Demain, 13 Décembre, Mercredi

    Heure Température Précipitation Vent Pression Humidité
    00:00 +10°C° 0 mm 5 m/s 759 mmHg 84%
    01:00 +10°C° 0 mm 6 m/s 759 mmHg 83%
    02:00 +10°C° 0 mm 5 m/s 758 mmHg 83%
    03:00 +10°C° 0 mm 5 m/s 758 mmHg 84%
    04:00 +10°C° 0 mm 5 m/s 758 mmHg 84%
    05:00 +10°C° 0 mm 6 m/s 758 mmHg 84%
    06:00 +10°C° 0 mm 6 m/s 758 mmHg 85%
    07:00 +10°C° 0 mm 6 m/s 758 mmHg 85%
    08:00 +11°C° 0 mm 6 m/s 758 mmHg 81%
    09:00 +13°C° 0 mm 6 m/s 758 mmHg 77%
    10:00 +15°C° 0 mm 6 m/s 758 mmHg 74%
    11:00 +15°C° 0 mm 7 m/s 757 mmHg 71%
    12:00 +16°C° 0 mm 7 m/s 757 mmHg 69%
    13:00 +16°C° 0 mm 7 m/s 756 mmHg 66%
    14:00 +15°C° 0,2 mm 7 m/s 756 mmHg 71%
    15:00 +14°C° 0,2 mm 6 m/s 756 mmHg 76%
    16:00 +13°C° 0,2 mm 6 m/s 756 mmHg 81%
    17:00 +13°C° 0,5 mm 6 m/s 756 mmHg 82%
    18:00 +11°C° 0,5 mm 6 m/s 756 mmHg 84%
    19:00 +11°C° 0,5 mm 6 m/s 755 mmHg 86%
    20:00 +11°C° 1,4 mm 6 m/s 755 mmHg 88%
    21:00 +12°C° 1,4 mm 5 m/s 756 mmHg 90%
    22:00 +12°C° 1,4 mm 5 m/s 756 mmHg 92%
    23:00 +10°C° 1,4 mm 5 m/s 755 mmHg 93%

    Après-demain, 14 Décembre, Jeudi

    Heure Température Précipitation Vent Pression Humidité
    00:00 +10°C° 1,4 mm 5 m/s 755 mmHg 94%
    01:00 +10°C° 1,4 mm 5 m/s 755 mmHg 95%
    02:00 +11°C° 0,3 mm 4 m/s 755 mmHg 95%
    03:00 +11°C° 0,3 mm 4 m/s 755 mmHg 95%
    04:00 +11°C° 0,3 mm 3 m/s 755 mmHg 95%
    05:00 +10°C° 0,1 mm 3 m/s 755 mmHg 94%
    06:00 +10°C° 0,1 mm 3 m/s 755 mmHg 94%
    07:00 +9°C° 0,1 mm 3 m/s 756 mmHg 94%
    08:00 +10°C° 0,1 mm 3 m/s 756 mmHg 87%
    09:00 +12°C° 0,1 mm 2 m/s 756 mmHg 81%
    10:00 +13°C° 0,1 mm 2 m/s 756 mmHg 75%
    11:00 +12°C° 0 mm 3 m/s 756 mmHg 71%
    12:00 +12°C° 0 mm 3 m/s 755 mmHg 68%
    13:00 +12°C° 0 mm 3 m/s 755 mmHg 65%
    14:00 +12°C° 0 mm 3 m/s 755 mmHg 69%
    15:00 +11°C° 0 mm 3 m/s 755 mmHg 73%
    16:00 +10°C° 0 mm 3 m/s 755 mmHg 77%
    17:00 +10°C° 0 mm 3 m/s 755 mmHg 79%
    18:00 +9°C° 0 mm 3 m/s 755 mmHg 81%
    19:00 +8°C° 0 mm 4 m/s 755 mmHg 83%
    20:00 +7°C° 0 mm 4 m/s 755 mmHg 82%
    21:00 +7°C° 0 mm 4 m/s 755 mmHg 81%
    22:00 +7°C° 0 mm 5 m/s 755 mmHg 80%
    23:00 +7°C° 0 mm 5 m/s 755 mmHg 78%

    15 Décembre, Vendredi

    Heure Température Précipitation Vent Pression Humidité
    00:00 +7°C° 0 mm 5 m/s 755 mmHg 76%
    01:00 +7°C° 0 mm 5 m/s 754 mmHg 73%
    02:00 +7°C° 0 mm 5 m/s 754 mmHg 74%
    03:00 +8°C° 0 mm 5 m/s 754 mmHg 75%
    04:00 +8°C° 0 mm 5 m/s 754 mmHg 76%
    05:00 +8°C° 0 mm 5 m/s 754 mmHg 75%
    06:00 +8°C° 0 mm 6 m/s 753 mmHg 75%
    07:00 +8°C° 0 mm 6 m/s 753 mmHg 74%
    08:00 +9°C° 0 mm 6 m/s 753 mmHg 72%
    09:00 +11°C° 0 mm 6 m/s 753 mmHg 70%
    10:00 +13°C° 0 mm 6 m/s 753 mmHg 68%
    11:00 +12°C° 0,1 mm 7 m/s 752 mmHg 68%
    12:00 +12°C° 0,1 mm 7 m/s 751 mmHg 69%
    13:00 +13°C° 0,1 mm 8 m/s 751 mmHg 70%
    14:00 +12°C° 0,1 mm 8 m/s 750 mmHg 74%
    15:00 +12°C° 0,1 mm 9 m/s 750 mmHg 78%
    16:00 +11°C° 0,1 mm 9 m/s 750 mmHg 83%
    17:00 +11°C° 0,1 mm 9 m/s 750 mmHg 83%
    18:00 +11°C° 0,1 mm 9 m/s 749 mmHg 83%
    19:00 +10°C° 0,1 mm 9 m/s 749 mmHg 84%
    20:00 +10°C° 0,2 mm 9 m/s 749 mmHg 84%
    21:00 +10°C° 0,2 mm 9 m/s 749 mmHg 84%
    22:00 +10°C° 0,2 mm 9 m/s 749 mmHg 84%
    23:00 +10°C° 0,5 mm 9 m/s 749 mmHg 86%

    16 Décembre, Samedi

    Heure Température Précipitation Vent Pression Humidité
    00:00 +10°C° 0,5 mm 9 m/s 749 mmHg 87%
    01:00 +11°C° 0,5 mm 9 m/s 749 mmHg 89%
    02:00 +11°C° 0,5 mm 9 m/s 749 mmHg 89%
    03:00 +11°C° 0,5 mm 9 m/s 748 mmHg 90%
    04:00 +11°C° 0,5 mm 9 m/s 748 mmHg 90%
    05:00 +11°C° 1,3 mm 9 m/s 748 mmHg 89%
    06:00 +11°C° 1,3 mm 9 m/s 748 mmHg 89%
    07:00 +10°C° 1,3 mm 9 m/s 748 mmHg 89%
    08:00 +11°C° 1,7 mm 9 m/s 748 mmHg 87%
    09:00 +12°C° 1,7 mm 9 m/s 748 mmHg 85%
    10:00 +13°C° 1,7 mm 9 m/s 749 mmHg 83%
    11:00 +13°C° 2,9 mm 8 m/s 748 mmHg 82%
    12:00 +13°C° 2,9 mm 8 m/s 748 mmHg 81%
    13:00 +14°C° 2,9 mm 7 m/s 748 mmHg 80%
    14:00 +14°C° 3,5 mm 6 m/s 748 mmHg 84%
    15:00 +13°C° 3,5 mm 5 m/s 748 mmHg 87%
    16:00 +12°C° 3,5 mm 4 m/s 748 mmHg 91%
    17:00 +12°C° 3,2 mm 4 m/s 749 mmHg 92%
    18:00 +11°C° 3,2 mm 3 m/s 749 mmHg 94%
    19:00 +11°C° 3,2 mm 3 m/s 750 mmHg 95%
    20:00 +10°C° 2,5 mm 3 m/s 750 mmHg 94%
    21:00 +10°C° 2,5 mm 3 m/s 750 mmHg 93%
    22:00 +10°C° 2,5 mm 4 m/s 750 mmHg 92%
    23:00 +10°C° 1,4 mm 3 m/s 750 mmHg 91%

    17 Décembre, Dimanche

    Heure Température Précipitation Vent Pression Humidité
    00:00 +9°C° 1,4 mm 3 m/s 750 mmHg 90%
    01:00 +9°C° 1,4 mm 3 m/s 750 mmHg 89%
    02:00 +9°C° 0,3 mm 2 m/s 750 mmHg 88%
    03:00 +10°C° 0,3 mm 2 m/s 750 mmHg 86%
    04:00 +11°C° 0,3 mm 1 m/s 750 mmHg 85%
    05:00 +11°C° 0,1 mm 1 m/s 750 mmHg 84%
    06:00 +11°C° 0,1 mm 1 m/s 750 mmHg 84%
    07:00 +10°C° 0,1 mm 2 m/s 750 mmHg 84%
    08:00 +10°C° 0 mm 2 m/s 750 mmHg 81%
    09:00 +12°C° 0 mm 2 m/s 751 mmHg 79%
    10:00 +12°C° 0 mm 2 m/s 751 mmHg 76%
    11:00 +13°C° 0 mm 2 m/s 750 mmHg 74%
    12:00 +13°C° 0 mm 2 m/s 750 mmHg 73%
    13:00 +13°C° 0 mm 2 m/s 750 mmHg 71%
    14:00 +13°C° 0 mm 2 m/s 750 mmHg 74%
    15:00 +12°C° 0 mm 1 m/s 750 mmHg 78%
    16:00 +11°C° 0 mm 1 m/s 751 mmHg 81%
    17:00 +10°C° 0 mm 1 m/s 751 mmHg 83%
    18:00 +10°C° 0 mm 1 m/s 751 mmHg 85%
    19:00 +9°C° 0 mm 1 m/s 752 mmHg 88%
    20:00 +8°C° 0,1 mm 2 m/s 752 mmHg 88%
    21:00 +7°C° 0,1 mm 2 m/s 753 mmHg 88%
    22:00 +7°C° 0,1 mm 2 m/s 753 mmHg 88%
    23:00 +7°C° 0 mm 2 m/s 753 mmHg 88%
    Voir plus